Weather in Rybnitsa

Russia / Komi Republic     64°33′24″N   55°28′52″E
temp.,
°C
wind,
m/s
gust,
m/s
humid.,
%
clouds,
%
prec.,
mm/h
press.,
hPa
HPBL,
m
1 august, sun
sun100:00+13sse51296100 2.3 995530
03:00+14ssw3999100 2.4 995559
06:00+14wsw4109563 0.1 996747
09:00+17wsw477933 0.5 997811
12:00+19w476987 1.6 9981250
15:00+20w575536 1.8 9991319
18:00+17wnw38828 0.6 1001445
21:00+12w27975 1.2 1003160
2 august, mon
mon200:00+11w269897 0.0 1004140
03:00+9wnw239928 0.0 100568
06:00+13wnw129011 0.0 1006253
09:00+19wsw12551 0.0 1007930
12:00+21wsw245173 0.1 10061606
15:00+22sw334970 0.1 10061471
18:00+18sw248333 1.5 1007151
21:00+14ssw22963 1.5 100831
3 august, tue
tue300:00+13s22989 0.0 100833
03:00+12s229934 0.0 101049
06:00+16s239137 0.0 1010279
09:00+21s2461100 0.0 10091003
12:00+25ssw354662 0.0 10092053
15:00+26s454060 0.0 10082164
18:00+23se3855100 0.0 1007397
21:00+19se4136498 0.0 1006427
4 august, wed
wed400:00+18sse41470100 0.0 1006518
03:00+17se41278100 0.0 1005429
06:00+17sse389490 1.4 1005466
09:00+19s3486100 1.6 1005649
12:00+20sse3484100 0.0 1005496
15:00+22ssw237872 0.8 1006681
18:00+20sw128996 3.6 100643
21:00+18nnw1191100 3.7 100611
5 august, thu
thu500:00+17nw2495100 0.8 100671
03:00+15wnw3895100 1.0 1007208
06:00+15wnw4109188 0.1 1008466
09:00+18nw566898 0.1 10101014
12:00+16nw5664100 0.0 10121167
15:00+15nw4763100 0.0 1014908
18:00+13nw4661100 0.0 10161104
21:00+11nnw4863100 0.0 1017728